Weather History for Winchester, VA

Change the Weather History Date:

Thursday, January 17, 2013

  Actual Average Record
Temperature  
Mean Temperature 38 °F -  
Max Temperature 42 °F 38 °F 64 °F (1990)
Min Temperature 33 °F 23 °F 0 °F (2009)
Degree Days  
Heating Degree Days 28    
Moisture  
Dew Point 32 °F    
Average Humidity 79    
Maximum Humidity 100    
Minimum Humidity 53    
Precipitation  
Precipitation 0.00 in - - ()
Sea Level Pressure  
Sea Level Pressure 30.06 in    
Wind  
Wind Speed 3 mph (NW)    
Max Wind Speed 13 mph    
Max Gust Speed 16 mph    
Visibility 10 miles    
Events      
Averages and records for this station are not official NWS values.
T = Trace of Precipitation, MM = Missing Value Source: NWS Daily Summary

Daily Weather History Graph

Daily Weather History Graph

Search for Another Location

Airport:

Trip Planner

Search our weather history database for the weather conditions in past years. The results will help you decide how hot, cold, wet, or windy it might be!

Date:

Astronomy

Jan. 17, 2013 Rise Set
Actual Time 7:29 AM EST 5:16 PM EST
Civil Twilight 7:00 AM EST 5:45 PM EST
Nautical Twilight 6:27 AM EST 6:18 PM EST
Astronomical Twilight 5:55 AM EST 6:50 PM EST
Moon 10:38 AM EST (1/17) No Moon Set
Length of Visible Light 10h 45m
Length of Day
9h 47m
Waxing Crescent, 37% of the Moon is Illuminated
Jan 17
Waxing Crescent
Jan 18
First Quarter
Jan 26
Full
Feb 3
Last Quarter
Feb 10
New

Hourly Weather History & Observations

Time (EST) Temp. Windchill Dew Point Humidity Pressure Visibility Wind Dir Wind Speed Gust Speed Precip Events Conditions
12:15 AM 39.2 °F - 37.4 °F 93% 29.99 in 7.0 mi Calm Calm - N/A   Scattered Clouds
12:35 AM 37.4 °F - 37.4 °F 100% 29.98 in 7.0 mi Calm Calm - N/A   Clear
12:55 AM 37.4 °F 34.9 °F 37.4 °F 100% 29.99 in 7.0 mi South 3.5 mph - N/A   Clear
1:15 AM 37.4 °F - 37.4 °F 100% 29.99 in 7.0 mi Calm Calm - N/A   Clear
1:35 AM 37.4 °F 34.9 °F 37.4 °F 100% 30.00 in 7.0 mi SSE 3.5 mph - N/A   Clear
1:55 AM 41.0 °F 39.0 °F 39.2 °F 93% 30.01 in 10.0 mi WSW 3.5 mph - N/A   Scattered Clouds
2:15 AM 41.0 °F - 37.4 °F 87% 30.01 in 10.0 mi Calm Calm - N/A   Scattered Clouds
2:35 AM 41.0 °F - 37.4 °F 87% 30.01 in 10.0 mi Calm Calm - N/A   Scattered Clouds
2:55 AM 41.0 °F - 37.4 °F 87% 29.99 in 10.0 mi Calm Calm - N/A   Clear
3:15 AM 42.8 °F 37.5 °F 33.8 °F 70% 30.01 in 10.0 mi West 9.2 mph - N/A   Clear
3:35 AM 42.8 °F 39.3 °F 32.0 °F 66% 30.00 in 10.0 mi West 5.8 mph - N/A   Clear
3:55 AM 41.0 °F - 32.0 °F 70% 30.00 in 10.0 mi Calm Calm - N/A   Clear
4:15 AM 39.2 °F 35.9 °F 32.0 °F 75% 30.01 in 10.0 mi WNW 4.6 mph - N/A   Clear
4:35 AM 39.2 °F - 32.0 °F 75% 30.00 in 10.0 mi Calm Calm - N/A   Scattered Clouds
4:55 AM 41.0 °F 39.0 °F 32.0 °F 70% 30.02 in 10.0 mi SW 3.5 mph - N/A   Overcast
5:15 AM 42.8 °F 40.1 °F 28.4 °F 57% 30.01 in 10.0 mi West 4.6 mph - N/A   Overcast
5:35 AM 42.8 °F 39.3 °F 26.6 °F 53% 30.03 in 10.0 mi West 5.8 mph - N/A   Overcast
5:55 AM 42.8 °F 38.0 °F 26.6 °F 53% 30.00 in 10.0 mi WNW 8.1 mph - N/A   Overcast
6:15 AM 41.0 °F 34.7 °F 28.4 °F 61% 30.02 in 10.0 mi NW 10.4 mph - N/A   Overcast
6:35 AM 39.2 °F 33.0 °F 28.4 °F 65% 30.04 in 10.0 mi NNW 9.2 mph - N/A   Scattered Clouds
6:55 AM 39.2 °F 35.0 °F 28.4 °F 65% 30.04 in 10.0 mi NNW 5.8 mph - N/A   Clear
7:15 AM 39.2 °F 33.6 °F 28.4 °F 65% 30.04 in 10.0 mi NNW 8.1 mph - N/A   Clear
7:35 AM 37.4 °F - 28.4 °F 70% 30.08 in 10.0 mi Calm Calm - N/A   Clear
7:55 AM 37.4 °F - 30.2 °F 75% 30.08 in 10.0 mi Calm Calm - N/A   Clear
8:15 AM 37.4 °F - 30.2 °F 75% 30.10 in 10.0 mi Calm Calm - N/A   Clear
8:35 AM 37.4 °F - 30.2 °F 75% 30.09 in 10.0 mi Calm Calm - N/A   Clear
8:55 AM 39.2 °F - 30.2 °F 70% 30.11 in 10.0 mi Calm Calm - N/A   Scattered Clouds
9:15 AM 39.2 °F 32.5 °F 30.2 °F 70% 30.12 in 10.0 mi WNW 10.4 mph - N/A   Scattered Clouds
9:35 AM 39.2 °F 35.0 °F 30.2 °F 70% 30.11 in 10.0 mi WNW 5.8 mph - N/A   Scattered Clouds
9:55 AM 39.2 °F 35.0 °F 30.2 °F 70% 30.12 in 10.0 mi NW 5.8 mph - N/A   Clear
10:15 AM 41.0 °F 37.1 °F 30.2 °F 65% 30.11 in 10.0 mi North 5.8 mph - N/A   Clear
10:35 AM 41.0 °F 36.4 °F 32.0 °F 70% 30.12 in 10.0 mi NNW 6.9 mph - N/A   Clear
10:55 AM 41.0 °F 37.1 °F 32.0 °F 70% 30.12 in 10.0 mi NNW 5.8 mph - N/A   Clear
11:15 AM 39.2 °F 35.9 °F 32.0 °F 75% 30.11 in 10.0 mi NW 4.6 mph - N/A   Scattered Clouds
11:35 AM 39.2 °F 35.0 °F 32.0 °F 75% 30.10 in 10.0 mi NW 5.8 mph - N/A   Scattered Clouds
11:55 AM 39.2 °F 31.6 °F 32.0 °F 75% 30.10 in 10.0 mi NW 12.7 mph - N/A   Mostly Cloudy
12:15 PM 39.2 °F 31.6 °F 32.0 °F 75% 30.10 in 10.0 mi NW 12.7 mph 16.1 mph N/A   Mostly Cloudy
12:35 PM 39.2 °F 32.5 °F 32.0 °F 75% 30.09 in 10.0 mi NNW 10.4 mph - N/A   Overcast
12:55 PM 39.2 °F 34.2 °F 32.0 °F 75% 30.08 in 10.0 mi NW 6.9 mph - N/A   Overcast
1:15 PM 39.2 °F 35.9 °F 32.0 °F 75% 30.08 in 10.0 mi NNW 4.6 mph - N/A   Overcast
1:55 PM 37.4 °F 34.9 °F 32.0 °F 81% 30.07 in 10.0 mi NNW 3.5 mph - N/A   Mostly Cloudy
2:15 PM 37.4 °F 33.8 °F 32.0 °F 81% 30.05 in 10.0 mi NNW 4.6 mph - N/A   Mostly Cloudy
2:35 PM 37.4 °F 34.9 °F 32.0 °F 81% 30.05 in 10.0 mi North 3.5 mph - N/A   Scattered Clouds
2:55 PM 37.4 °F - 32.0 °F 81% 30.07 in 10.0 mi Calm Calm - N/A   Mostly Cloudy
3:15 PM 37.4 °F - 32.0 °F 81% 30.06 in 10.0 mi Calm Calm - N/A   Overcast
3:35 PM 37.4 °F - 32.0 °F 81% 30.08 in 10.0 mi Calm Calm - N/A   Mostly Cloudy
3:55 PM 37.4 °F - 32.0 °F 81% 30.07 in 10.0 mi Calm Calm - N/A   Mostly Cloudy
4:15 PM 35.6 °F 32.8 °F 32.0 °F 87% 30.09 in 10.0 mi SE 3.5 mph - N/A   Scattered Clouds
4:35 PM 35.6 °F 32.8 °F 32.0 °F 87% 30.10 in 10.0 mi SE 3.5 mph - N/A   Mostly Cloudy
4:55 PM 35.6 °F 32.8 °F 32.0 °F 87% 30.10 in 10.0 mi East 3.5 mph - N/A   Overcast
5:15 PM 35.6 °F 32.8 °F 32.0 °F 87% 30.10 in 10.0 mi ESE 3.5 mph - N/A   Overcast
5:35 PM 35.6 °F - 32.0 °F 87% 30.10 in 10.0 mi Calm Calm - N/A   Overcast
5:55 PM 35.6 °F - 32.0 °F 87% 30.10 in 10.0 mi Calm Calm - N/A   Mostly Cloudy
6:15 PM 35.6 °F - 32.0 °F 87% 30.11 in 10.0 mi Calm Calm - N/A   Mostly Cloudy
6:35 PM 33.8 °F - 32.0 °F 93% 30.10 in 10.0 mi Calm Calm - N/A   Mostly Cloudy
6:55 PM 33.8 °F - 32.0 °F 93% 30.11 in 10.0 mi Calm Calm - N/A   Overcast
7:15 PM 33.8 °F - 32.0 °F 93% 30.11 in 10.0 mi Calm Calm - N/A   Mostly Cloudy
7:55 PM 33.8 °F - 32.0 °F 93% 30.08 in 10.0 mi Calm Calm - N/A   Scattered Clouds
8:35 PM 33.8 °F - 32.0 °F 93% 30.09 in 10.0 mi Calm Calm - N/A   Scattered Clouds
8:55 PM 33.8 °F 30.8 °F 32.0 °F 93% 30.09 in 10.0 mi WNW 3.5 mph - N/A   Scattered Clouds
9:15 PM 33.8 °F 29.6 °F 32.0 °F 93% 30.10 in 10.0 mi NW 4.6 mph - N/A   Scattered Clouds
9:55 PM 35.6 °F 31.7 °F 32.0 °F 87% 30.07 in 10.0 mi NNW 4.6 mph - N/A   Clear
10:15 PM 35.6 °F - 30.2 °F 81% 30.09 in 10.0 mi Calm Calm - N/A   Clear
10:35 PM 35.6 °F 32.8 °F 32.0 °F 87% 30.09 in 10.0 mi WNW 3.5 mph - N/A   Clear
10:55 PM 35.6 °F 31.7 °F 30.2 °F 81% 30.09 in 10.0 mi WNW 4.6 mph - N/A   Clear